MUOS-1

Last updated on Thu Oct 30 2025 00:02:49 GMT+0000 (Coordinated Universal Time)

1 38093U 12009A 25302.49824102 -.00000114 00000+0 00000+0 0 9992 2 38093 5.0063 47.0994 0050359 1.4662 68.8596 1.00270157 50137
UTC large
Height (km)
Speed (km/s)
/
Latitude / Longitude
Inclination (degrees)
Orbital Period (minutes)
Azimuth
Elevation
Range (km)
Doppler Factor

Next 0 passes for location: London (51.5072 / 0.1276)

Sorry there are no passes over London.